Regional Weather Roundup
Issued by NWS

Home | Current Version | Previous Version | Text Only | Print | Product List | Glossary Off
Versions: 1 2 3 4 5 6 7 8 9 10 11 12 13 14 15 16 17 18 19 20 21 22 23 24 25 26 27 28 29 30 31 32 33 34 35 36 37 38 39 40 41 42 43 44 45 46 47 48 49 50

000
ASUS43 KMKX 301021
RWRWI

WISCONSIN REGIONAL WEATHER ROUNDUP
NATIONAL WEATHER SERVICE MILWAUKEE/SULLIVAN WI
500 AM CDT SAT APR 30 2016

NOTE: "FAIR" INDICATES FEW OR NO CLOUDS BELOW 12,000 FEET WITH NO
SIGNIFICANT WEATHER AND/OR OBSTRUCTIONS TO VISIBILITY.

WIZ001-002-006>008-014>016-023>028-301100-
NORTHWEST WISCONSIN

CITY           SKY/WX    TMP DP  RH WIND       PRES   REMARKS
SUPERIOR ARPT  CLEAR     36  32  88 NE9       30.24R WCI  29
ASHLAND        PTCLDY    36  33  89 NE10      30.23R WCI  28
HAYWARD        PTCLDY    33  28  81 NE7       30.18R WCI  27
SIREN          CLEAR     36  30  80 NE5       30.16S WCI  32
CUMBERLAND     CLOUDY    36  30  80 NE8       30.14R WCI  29
RICE LAKE      CLOUDY    38  32  77 N5        30.15S WCI  35
CHETEK         CLOUDY    40  32  73 NE5       30.14S
LADYSMITH      CLOUDY    38  31  78 NE5       30.16F WCI  34
EAU CLAIRE     CLOUDY    39  34  82 NE7       30.12S WCI  34
MENOMONIE      CLOUDY    38  32  78 CALM      30.13R
NEW RICHMOND   PTCLDY    38  32  79 NE3       30.13S
OSCEOLA        CLEAR     38  32  78 CALM      30.16S
$$

WIZ003>005-009-010-017-018-301100-
NORTH CENTRAL WISCONSIN

CITY           SKY/WX    TMP DP  RH WIND       PRES   REMARKS
MANITOWISH WTR CLOUDY    35  31  85 CALM      30.18R
ARBOR VITAE    CLOUDY    38  30  74 CALM      30.18R
WOODRUFF       CLOUDY    38  30  74 CALM      30.18R
RHINELANDER    CLOUDY    36  28  73 E6        30.18R WCI  31
EAGLE RIVER    PTCLDY    32  27  81 CALM      30.18R
LAND O LAKES   CLOUDY    33  29  85 CALM      30.18F
PHILLIPS       CLEAR     32  29  90 NE3       30.16R
TOMAHAWK       CLOUDY    34  29  82 NE3       30.17R
MEDFORD        CLOUDY    35  31  87 E7        30.13S WCI  29
MERRILL        CLOUDY    34  29  83 CALM      30.16R
$$

WIZ029-030-035-036-043>047-301100-
CENTRAL WISCONSIN

CITY           SKY/WX    TMP DP  RH WIND       PRES   REMARKS
WAUSAU         CLOUDY    39  28  64 CALM      30.13R
MOSINEE        PTCLDY    36  30  80 NE7       30.14S WCI  30
MARSHFIELD     CLOUDY    39  31  72 NE7       30.11S WCI  34
STEVENS POINT  CLOUDY    32  29  88 NE3       30.14S
WAUPACA        MOCLDY    38  32  79 CALM      30.15R
WAUTOMA        CLOUDY    36  32  85 CALM      30.14R
WISC RAPIDS    PTCLDY    36  30  79 E5        30.15R WCI  32
CAMP DOUGLAS   MOCLDY    36  36 100 CALM      30.10F
$$

WIZ011>013-019>022-031-037>040-048>050-301100-
NORTHEAST WISCONSIN

CITY           SKY/WX    TMP DP  RH WIND       PRES   REMARKS
ANTIGO         CLOUDY    35  30  82 CALM      30.16R
SHAWANO        PTCLDY    40  32  74 NE8       30.15S WCI  35
OCONTO         CLOUDY    38  33  84 NE5       30.16R WCI  34
STURGEON BAY   CLEAR     39  30  70 E8        30.17S WCI  34
GREEN BAY      CLOUDY    42  37  82 NE10      30.15R
MANITOWOC      CLOUDY    38  31  76 CALM      30.14S
APPLETON       CLOUDY    37  30  75 NE7       30.12S WCI  32
CLINTONVILLE   PTCLDY    36  30  80 N5        30.14S WCI  32
OSHKOSH        PTCLDY    43  31  62 NE5       30.13R
$$

WIZ032>034-041-042-053>061-301100-
SOUTHWEST WISCONSIN

CITY           SKY/WX    TMP DP  RH WIND       PRES   REMARKS
LA CROSSE      CLOUDY    42  37  82 CALM      30.09S
SPARTA         MOCLDY    32  32  99 CALM      30.10F
VIROQUA        CLOUDY    41  37  86 E9        30.07S
BOSCOBEL       CLOUDY    44  38  79 NE7       30.07F
PRAIRIE DU CHI CLOUDY    44  36  74 E6        30.05F
PLATTEVILLE    CLOUDY    42  40  92 E12       30.03S
$$

WIZ056-057-062-063-064-067-068-301100-
SOUTH CENTRAL WISCONSIN

CITY           SKY/WX    TMP DP  RH WIND       PRES   REMARKS
REEDSBURG      CLOUDY    42  36  80 NE6       30.09F
BARABOO/DELLS  CLOUDY    41  32  70 E7        30.09F
LONE ROCK      CLOUDY    44  38  79 E10       30.08F
MINERAL POINT  CLOUDY    43  39  87 E13       30.04F
MADISON        MOCLDY    42  32  67 E8        30.08F
MIDDLETON      CLOUDY    44  36  73 E9        30.08F
WATERTOWN      PTCLDY    38  31  76 CALM      30.09F
MONROE         MOCLDY    41  37  87 NE10      30.04F
JANESVILLE     CLOUDY    43  37  81 NE7       30.06F
$$

WIZ051-052-058>065-066-070>072-301100-
SOUTHEAST WISCONSIN

CITY           SKY/WX    TMP DP  RH WIND       PRES   REMARKS
MILWAUKEE      CLOUDY    41  35  79 NE7       30.10R
WAUKESHA       CLOUDY    36  30  80 NE6       30.11F WCI  31
MILWAUKEE/TIMM CLOUDY    39  30  70 NE3       30.11F
RACINE         MOCLDY    44  37  76 E9        30.11S
BURLINGTON     CLOUDY    40  35  80 E6        30.08F
KENOSHA        MOCLDY    44  38  79 E12       30.09R
FOND DU LAC    CLOUDY    36  29  75 CALM      30.12R
SHEBOYGAN      CLOUDY    34  28  79 NE7       30.13R WCI  28
WEST BEND      CLOUDY    34  30  86 NE3       30.11S
JUNEAU         PTCLDY    38  29  70 NE3       30.11F
$$

LSZ147-162-301100-
LAKE SUPERIOR

STATION/POSITION TIME  TEMP    WIND        PRES    WAVE
                       AIR SEA DIR/SP/G            HT/PER
                 (UTC) (F)     (DEG/KT/KT) (MB)    (FT/S)
W MID LAKE BUOY  0950   38 36   50/ 12/ 14 1025.4S   1/ 3
DEVILS ISLAND    1000   39      60/ 16/ 18 1024.8F
SAXON HARBOR     0900   30     180/  3/  3 1023.0S
$$

LMZ867-665-643>646-301100-
LAKE MICHIGAN

STATION/POSITION TIME  TEMP    WIND        PRES    WAVE
                       AIR SEA DIR/SP/G            HT/PER
                 (UTC) (F)     (DEG/KT/KT) (MB)    (FT/S)
CHAMBERS ISLAND  0900   40      20/ 10/ 13 1021.7F
N MID LAKE BUOY  0950   40 38   40/ 12/ 14 1021.4F   1/ 2
NORTHPORT PIER   1001   39     310/  4/  7 1021.3F
ALGOMA LAKESHORE 0915           40/ 17/ 21   N/A
KEWAUNEE LAKESHO 0900   42      30/  9/ 13 1019.7F
SHEBOYGAN LAKESH 1000   41      20/  9/ 10 1021.2R
PORT WASHINGTON  0920   41     360/  5/ 10 1021.0R
S MID LAKE BUOY  0950   42 40   70/ 10/ 10 1019.4R   1
KENOSHA   LAKESH 1000   43      80/ 13/ 16 1018.6F
$$

TC  - TEMPERATURE IN CELSIUS
VSB - VISIBILITY IN STATUTE MILES
WCI - WIND CHILL INDEX
HX  - HEAT INDEX




USA.gov is the U.S. government's official web portal to all federal, state and local government web resources and services.